This demonstration page uses our WeatherBlox Daily Observations layout. Learn more.

Left ArrowRight Arrow

Hourly Observations for March 21, 2022

Temp ( °F °C ) Dew Point ( °F °C ) Humidity (%) Winds ( mph kmh ) Pressure ( in mb ) Visibility ( mi km ) Precip ( " mm )
12:53 am 00:53 Mostly Cloudy 64 17.8 34 1.1 33 33 SSE 25 41 29.55 1001 8 13 0.00 0.00
1:53 am 01:53 Cloudy 63 17.2 36 2.2 37 37 SSE 18 30 29.57 1001 9 14 0.00 0.00
2:53 am 02:53 Partly Cloudy 61 16.1 37 2.8 41 41 SSE 17 28 29.56 1001 7 11 0.00 0.00
3:53 am 03:53 Clear 60 15.6 39 3.9 46 46 SE 20 31 29.53 1000 8 13 0.00 0.00
4:53 am 04:53 Clear 57 13.9 42 5.6 58 58 SSE 13 20 29.52 1000 9 14 0.00 0.00
5:53 am 05:53 Clear 58 14.4 41 5 53 53 SSE 14 22 29.53 1000 10 16 0.00 0.00
6:53 am 06:53 Clear 51 10.6 41 5 69 69 S 8 13 29.56 1001 10 16 0.00 0.00
7:53 am 07:53 Clear 54 12.2 28 -2.2 37 37 W 15 24 29.57 1001 10 16 0.00 0.00
8:53 am 08:53 Sunny 58 14.4 30 -1.1 35 35 W 18 30 29.62 1003 10 16 0.00 0.00
9:53 am 09:53 Cloudy 57 13.9 30 -1.1 36 36 W 30 48 29.64 1004 9 14 0.00 0.00
10:53 am 10:53 Mostly Cloudy 57 13.9 31 -0.6 37 37 W 17 28 29.64 1004 10 16 0.00 0.00
11:53 am 11:53 Mostly Cloudy 61 16.1 24 -4.4 24 24 W 26 43 29.62 1003 10 16 0.00 0.00
12:53 pm 12:53 Mostly Sunny 65 18.3 24 -4.4 21 21 W 23 37 29.60 1003 10 16 0.00 0.00
1:53 pm 13:53 Partly Cloudy 66 18.9 23 -5 19 19 WSW 32 52 29.60 1002 10 16 0.00 0.00
2:53 pm 14:53 Mostly Cloudy 63 17.2 25 -3.9 24 24 WSW 23 37 29.59 1002 10 16 0.00 0.00
3:51 pm 15:51 Mostly Cloudy with Haze 61 16 34 1 36 36 W 43 69 29.60 1002 2 3 0.00 0.00
3:53 pm 15:53 Mostly Cloudy with Haze 60 15.6 34 1.1 38 38 W 43 69 29.59 1002 1 2 0.00 0.00
4:00 pm 16:00 Cloudy with Haze 58 14.4 35 1.7 42 42 W 35 56 29.63 1003 1 2 0.00 0.00
4:05 pm 16:05 Mostly Cloudy with Haze 57 13.9 35 1.7 44 44 W 36 57 29.63 1003 2 3 0.00 0.00
4:08 pm 16:08 Mostly Cloudy with Haze 57 13.9 34 1.1 42 42 W 35 56 29.63 1003 3 5 0.00 0.00
4:53 pm 16:53 Partly Cloudy 62 16.7 31 -0.6 31 31 W 26 43 29.58 1002 10 16 0.00 0.00
5:53 pm 17:53 Cloudy 62 16.7 29 -1.7 29 29 WSW 26 43 29.58 1002 10 16 0.00 0.00
6:53 pm 18:53 Sunny 61 16.1 33 0.6 35 35 SW 26 43 29.60 1003 10 16 0.00 0.00
7:53 pm 19:53 Mostly Sunny 60 15.6 32 0 35 35 W 28 44 29.62 1003 10 16 0.00 0.00
8:53 pm 20:53 Cloudy 59 15 34 1.1 39 39 W 23 37 29.66 1004 10 16 0.00 0.00
9:11 pm 21:11 Cloudy 55 12.8 38 3.3 53 53 NW 22 35 29.72 1007 10 16 0.00 0.00
9:53 pm 21:53 Partly Cloudy 52 11.1 39 3.9 61 61 WNW 12 19 29.72 1006 10 16 0.00 0.00
10:53 pm 22:53 Mostly Clear 51 10.6 41 5 69 69 WNW 14 22 29.74 1007 10 16 0.00 0.00
11:53 pm 23:53 Cloudy with Rain 48 8.9 41 5 77 77 NNW 15 24 29.79 1009 6 10 0.01 0.25

Powered by AerisWeather